GW7392 Weather Reports


time (UTC)temp
C
wind
direction
speed
KPH
gust
KPH
rain 1hr
cm
rain 24hr
cm
rain mn
cm
humidity
%
barometer
mb
20260509222520 14 0.0 0.0 0.00 0.00 0.00 60 1005.2
20260509221520 14 0.0 0.0 0.00 0.00 0.00 60 1005.4
20260509220519 13 0.0 0.0 0.00 0.00 0.00 62 1005.6
20260509215519 13 0.0 0.0 0.00 0.00 0.00 63 1005.5
20260509214519 13 0.0 0.0 0.00 0.00 0.00 64 1005.7
20260509213521 13 0.0 0.0 0.00 0.00 0.00 64 1005.8
20260509212521 13 0.0 0.0 0.00 0.00 0.00 68 1005.7
20260509211537 13 0.0 0.0 0.00 0.00 0.00 69 1006.0
20260509210521 13 0.0 0.0 0.00 0.00 0.00 68 1006.4
20260509205521 13 0.0 0.0 0.00 0.00 0.00 69 1006.3
20260509204521 13 0.0 0.0 0.00 0.00 0.00 69 1006.5
20260509203531 13 0.0 0.0 0.00 0.00 0.00 70 1006.6
20260509202520 13 0.0 0.0 0.00 0.00 0.00 72 1006.5
20260509201520 13 0.0 0.0 0.00 0.00 0.00 75 1006.7
20260509200609 13 0.0 0.0 0.00 0.00 0.00 75 1006.8
20260509195520 13 0.0 0.0 0.00 0.00 0.00 76 1006.9
20260509194520 13 0.0 0.0 0.00 0.00 0.00 76 1007.0
20260509193520 13 0.0 0.0 0.00 0.00 0.00 76 1007.1
20260509192520 13 0.0 0.0 0.00 0.00 0.00 76 1006.9
20260509191537 13 0.0 0.0 0.00 0.00 0.00 74 1007.0
20260509190521 13 0.0 0.0 0.00 0.00 0.00 73 1007.3
20260509185537 13 0.0 0.0 0.00 0.00 0.00 74 1007.0
20260509184537 13 0.0 0.0 0.00 0.00 0.00 74 1007.2
20260509183521 13 0.0 0.0 0.00 0.00 0.00 74 1007.4
20260509182520 13 0.0 0.0 0.00 0.00 0.00 74 1007.3
20260509181520 13 0.0 0.0 0.00 0.00 0.00 73 1007.2
20260509180537 13 0.0 0.0 0.00 0.00 0.00 72 1007.4
20260509175520 13 0.0 0.0 0.00 0.00 0.00 72 1007.4
20260509174521 13 0.0 0.0 0.00 0.00 0.00 73 1007.5
20260509173520 13 0.0 0.0 0.00 0.00 0.00 73 1007.6
20260509172521 13 0.0 0.0 0.00 0.00 0.00 74 1007.8
20260509171521 13 0.0 0.0 0.00 0.00 0.00 75 1007.9
20260509170521 13 0.0 0.0 0.00 0.00 0.00 75 1007.9
20260509165520 13 0.0 0.0 0.00 0.00 0.00 76 1008.1
20260509164520 13 0.0 0.0 0.00 0.00 0.00 75 1008.1
20260509163520 13 0.0 0.0 0.00 0.00 0.00 74 1008.0
20260509162520 13 0.0 0.0 0.00 0.00 0.00 74 1007.9
20260509161520 13 0.0 0.0 0.00 0.00 0.00 72 1007.9
20260509160520 12 0.0 0.0 0.00 0.00 0.00 76 1007.7
20260509155520 13 0.0 0.0 0.00 0.00 0.00 73 1007.9
20260509154519 14 0.0 0.0 0.00 0.00 0.00 69 1007.9
20260509153520 14 0.0 0.0 0.00 0.00 0.00 68 1007.8
20260509152521 15 0.0 0.0 0.00 0.00 0.00 67 1007.6
20260509151520 16 0.0 0.0 0.00 0.00 0.00 60 1007.9
20260509150520 17 0.0 0.0 0.00 0.00 0.00 56 1008.1
20260509145520 18 0.0 0.0 0.00 0.00 0.00 54 1008.0
20260509144520 18 0.0 0.0 0.00 0.00 0.00 52 1008.0
20260509143520 18 0.0 0.0 0.00 0.00 0.00 52 1008.1
20260509142537 18 0.0 0.0 0.00 0.00 0.00 53 1008.2
20260509141520 18 0.0 0.0 0.00 0.00 0.00 52 1008.2
20260509140536 18 0.0 0.0 0.00 0.00 0.00 52 1008.2
20260509135519 19 0.0 0.0 0.00 0.00 0.00 52 1008.4
20260509134520 19 0.0 0.0 0.00 0.00 0.00 51 1008.4
20260509133520 19 0.0 0.0 0.00 0.00 0.00 51 1008.4
20260509132520 19 0.0 0.0 0.00 0.00 0.00 51 1008.5
20260509131520 20 0.0 0.0 0.00 0.00 0.00 53 1008.7
20260509130519 20 0.0 0.0 0.00 0.00 0.00 51 1008.8
20260509125520 20 0.0 0.0 0.00 0.00 0.00 51 1008.9
20260509124520 20 0.0 0.0 0.00 0.00 0.00 51 1009.1
20260509123537 20 0.0 0.0 0.00 0.00 0.00 50 1009.1
20260509122520 20 0.0 0.0 0.00 0.00 0.00 50 1009.2
20260509121520 20 0.0 0.0 0.00 0.00 0.00 50 1008.9
20260509120520 20 0.0 0.0 0.00 0.00 0.00 48 1009.0
20260509115520 19 0.0 0.0 0.00 0.00 0.00 49 1009.0
20260509114520 20 0.0 0.0 0.00 0.00 0.00 49 1009.3
20260509113520 19 0.0 0.0 0.00 0.00 0.00 52 1009.3
20260509112519 19 0.0 0.0 0.00 0.00 0.00 51 1009.5
20260509111519 18 0.0 0.0 0.00 0.00 0.00 50 1009.6
20260509110520 18 0.0 0.0 0.00 0.00 0.00 51 1009.8
20260509105634 19 0.0 0.0 0.00 0.08 0.05 53 1010.0
20260509104658 18 0.0 0.0 0.00 0.08 0.05 57 1010.3
20260509103519 19 0.0 8.0 0.00 0.08 0.03 54 1010.4
20260509102519 18 0.0 0.0 0.00 0.08 0.03 57 1010.7
20260509101552 18 0.0 0.0 0.00 0.08 0.03 56 1010.8
20260509100520 18 0.0 0.0 0.00 0.08 0.03 57 1011.0
20260509095519 18 0.0 0.0 0.00 0.08 0.03 57 1011.1
20260509094519 18 0.0 0.0 0.00 0.08 0.03 59 1011.1
20260509093538 18 0.0 0.0 0.00 0.08 0.03 60 1011.5
20260509092519 17 0.0 0.0 0.00 0.08 0.03 63 1011.8
20260509091519 17 0.0 0.0 0.00 0.08 0.03 65 1011.9
20260509090519 16 0.0 0.0 0.00 0.08 0.03 64 1011.9
20260509085538 16 0.0 0.0 0.00 0.08 0.03 66 1011.8
20260509084520 16 0.0 0.0 0.03 0.08 0.03 66 1012.1
20260509083520 15 0.0 0.0 0.03 0.08 0.03 68 1012.1
20260509082536 15 0.0 0.0 0.03 0.08 0.03 69 1012.1
20260509081519 15 0.0 0.0 0.03 0.08 0.03 72 1012.3
20260509080520 15 0.0 0.0 0.03 0.08 0.03 73 1012.4
20260509075521 15 0.0 1.6 0.03 0.08 0.03 76
20260509074519 15 0.0 0.0 0.00 0.05 0.00 78 1012.6
20260509073519 13 0.0 0.0 0.00 0.05 0.00 80 1012.6
20260509072537 13 0.0 0.0 0.00 0.05 0.00 82 1012.7
20260509071519 12 0.0 0.0 0.00 0.05 0.00 83 1012.8
20260509070519 12 0.0 0.0 0.00 0.05 0.00 83 1012.6
20260509065519 11 0.0 0.0 0.00 0.05 0.00 84 1012.7
20260509064521 11 0.0 0.0 0.00 0.05 0.00 85 1012.7
20260509063521 11 0.0 0.0 0.00 0.05 0.00 87 1012.6
20260509062548 10 0.0 0.0 0.00 0.05 0.03 89 1012.6
20260509061732 10 0.0 0.0 0.00 0.05 0.03 90 1012.6
20260509060519 10 0.0 0.0 0.00 0.05 0.00 91 1012.5
20260509055521 9 0.0 0.0 0.00 0.05 0.00 91 1012.3
20260509054519 8 0.0 0.0 0.00 0.05 0.03 91 1012.4
20260509054027 8 0.0 0.0 0.00 0.05 0.03 92 1012.2
20260509052522 8 0.0 0.0 0.00 0.05 0.03 92 1012.1
20260509051519 8 0.0 0.0 0.00 0.05 0.03 92 1012.1
20260509050535 7 0.0 0.0 0.00 0.05 0.03 92 1012.1
20260509045521 7 0.0 0.0 0.00 0.05 0.03 92 1012.1
20260509044521 7 0.0 0.0 0.00 0.05 0.03 93 1012.1
20260509043521 7 0.0 0.0 0.00 0.05 0.03 93 1012.1
20260509042610 7 0.0 0.0 0.00 0.05 0.03 93 1012.1
20260509041521 7 0.0 0.0 0.00 0.05 0.03 92 1012.0
20260509040521 7 0.0 0.0 0.00 0.05 0.03 92 1012.1
20260509035521 7 0.0 0.0 0.00 0.08 0.03 92 1012.1
20260509034519 7 0.0 0.0 0.00 0.08 0.03 92 1012.3
20260509033519 7 0.0 0.0 0.00 0.08 0.03 92 1012.3
20260509032520 7 0.0 0.0 0.00 0.08 0.03 92 1012.3
20260509032121 7 0.0 0.0 0.00 0.08 0.03 93 1012.2